Weather reports worldwide

Advertisment
Pantelleria, Italy (16470): temperature & dewpoint: 12.10.2018 19:00:00 - 18.10.2018 19:00:00 (CEST)Pantelleria, Italy (16470): wind speed: 12.10.2018 19:00:00 - 18.10.2018 19:00:00 (CEST)Pantelleria, Italy (16470): wind direction: 12.10.2018 19:00:00 - 18.10.2018 19:00:00 (CEST)Pantelleria, Italy (16470): reduced air pressure: 12.10.2018 19:00:00 - 18.10.2018 19:00:00 (CEST)Pantelleria, Italy (16470): visibility: 12.10.2018 19:00:00 - 18.10.2018 19:00:00 (CEST)Pantelleria, Italy (16470): sunshine duration: 12.10.2018 19:00:00 - 18.10.2018 19:00:00 (CEST)
Date & Time tt [°C] td [°C] ff [km/h] ff [kn] dd ppp [hPa] vv [km] sd [min]
18.10.2018 19:00:00 - - - - - - - -
18.10.2018 18:00:00 19,2 17,4 35 19 E 1006,4 8 0
18.10.2018 17:00:00 19,8 17,2 24 13 E 1004,9 8 0
18.10.2018 16:00:00 19,0 16,0 31 17 SE 1004,6 8 0
18.10.2018 15:00:00 21,0 18,9 34 18 ESE 1004,8 8 0
18.10.2018 14:00:00 21,4 18,8 31 17 E 1005,1 6 0
18.10.2018 13:00:00 21,4 19,2 35 19 ESE 1005,8 6 0
18.10.2018 12:00:00 21,2 19,1 34 18 ESE 1006,6 3,0 0
18.10.2018 11:00:00 21,0 19,1 35 19 SE 1005,9 2,5 0
18.10.2018 10:00:00 21,4 19,0 37 20 SE 1005,7 6 0
18.10.2018 09:00:00 21,4 19,0 29 16 SE 1005,7 6 0
18.10.2018 08:00:00 21,6 19,2 37 20 SE 1005,5 6 0
18.10.2018 07:00:00 21,4 19,2 35 19 ESE 1005,8 4,0 0
18.10.2018 06:00:00 - - - - - - - -
18.10.2018 05:00:00 - - - - - - - -
18.10.2018 04:00:00 - - - - - - - -
18.10.2018 03:00:00 - - - - - - - -
18.10.2018 02:00:00 - - - - - - - -
18.10.2018 01:00:00 - - - - - - - -
18.10.2018 00:00:00 - - - - - - - -
17.10.2018 23:00:00 - - - - - - - -
17.10.2018 22:00:00 - - - - - - - -
17.10.2018 21:00:00 - - - - - - - -
17.10.2018 20:00:00 21,0 18,8 28 15 E 1010,2 8 0
17.10.2018 19:00:00 21,0 18,8 28 15 E 1009,9 8 0
17.10.2018 18:00:00 21,0 18,8 46 25 E 1008,7 8 0
17.10.2018 17:00:00 21,2 19,0 37 20 E 1008,9 8 0
17.10.2018 16:00:00 21,2 19,0 28 15 E 1009,8 8 0
17.10.2018 15:00:00 21,6 19,4 34 18 ENE 1010,7 8 0
17.10.2018 14:00:00 21,4 19,1 22 12 E 1011,8 6 0
17.10.2018 13:00:00 21,2 19,0 24 13 ESE 1012,7 6 0
17.10.2018 12:00:00 21,2 19,0 18 10 ESE 1013,2 7 0
17.10.2018 11:00:00 21,0 18,8 15 8 ESE 1012,9 11 0
17.10.2018 10:00:00 20,8 18,5 18 10 E 1012,8 11 0
17.10.2018 09:00:00 20,6 18,4 46 25 NE 1011,5 11 0
17.10.2018 08:00:00 20,6 18,4 29 16 ENE 1012,9 11 0
17.10.2018 07:00:00 20,2 18,3 29 16 ENE 1013,2 10 0
17.10.2018 06:00:00 - - - - - - - -
17.10.2018 05:00:00 - - - - - - - -
17.10.2018 04:00:00 - - - - - - - -
17.10.2018 03:00:00 - - - - - - - -
17.10.2018 02:00:00 - - - - - - - -
17.10.2018 01:00:00 - - - - - - - -
17.10.2018 00:00:00 - - - - - - - -
16.10.2018 23:00:00 - - - - - - - -
16.10.2018 22:00:00 - - - - - - - -
16.10.2018 21:00:00 - - - - - - - -
16.10.2018 20:00:00 21,0 18,9 9 5 ENE 1015,0 8 0
16.10.2018 19:00:00 21,2 19,0 4 2 ESE 1014,5 8 0
16.10.2018 18:00:00 20,8 18,6 24 13 S 1014,6 8 6
16.10.2018 17:00:00 20,6 18,4 22 12 SSE 1014,5 8 0
16.10.2018 16:00:00 23,2 20,9 22 12 SSE 1013,7 8 12
16.10.2018 15:00:00 23,6 21,5 28 15 SSE 1013,9 8 36
16.10.2018 14:00:00 23,8 21,5 28 15 SSE 1014,1 8 60
16.10.2018 13:00:00 23,8 21,5 26 14 SSE 1014,7 10 0
16.10.2018 12:00:00 23,2 20,9 26 14 SSE 1014,8 11 0
16.10.2018 11:00:00 22,2 19,9 24 13 SSE 1014,9 8 0
16.10.2018 10:00:00 22,6 20,1 24 13 S 1014,4 7 0
16.10.2018 09:00:00 22,4 20,1 24 13 SSE 1013,8 11 0
16.10.2018 08:00:00 22,0 19,7 22 12 SSE 1013,4 11 0
16.10.2018 07:00:00 22,0 20,3 28 15 SSE 1013,2 15 0
16.10.2018 06:00:00 - - - - - - - -
16.10.2018 05:00:00 - - - - - - - -
16.10.2018 04:00:00 - - - - - - - -
16.10.2018 03:00:00 - - - - - - - -
16.10.2018 02:00:00 - - - - - - - -
16.10.2018 01:00:00 - - - - - - - -
16.10.2018 00:00:00 - - - - - - - -
15.10.2018 23:00:00 - - - - - - - -
15.10.2018 22:00:00 - - - - - - - -
15.10.2018 21:00:00 - - - - - - - -
15.10.2018 20:00:00 20,6 19,1 5 3 E 1014,0 12 0
15.10.2018 19:00:00 21,0 19,3 4 2 SE 1013,4 15 0
15.10.2018 18:00:00 21,8 19,5 11 6 S 1012,9 20 24
15.10.2018 17:00:00 22,0 19,7 9 5 S 1012,9 20 60
15.10.2018 16:00:00 22,6 19,6 15 8 SSW 1012,9 20 60
15.10.2018 15:00:00 22,2 18,2 15 8 SSW 1012,9 15 60
15.10.2018 14:00:00 22,8 17,7 15 8 SW 1013,1 15 60
15.10.2018 13:00:00 22,6 18,4 11 6 WSW 1013,6 15 60
15.10.2018 12:00:00 21,8 18,4 16 9 WSW 1013,7 15 60
15.10.2018 11:00:00 21,0 18,4 13 7 WSW 1013,5 15 48
15.10.2018 10:00:00 21,0 18,9 11 6 W 1013,8 15 54
15.10.2018 09:00:00 20,0 18,5 8 4 W 1013,2 15 12
15.10.2018 08:00:00 18,8 17,3 8 4 W 1013,1 15 0
15.10.2018 07:00:00 18,8 17,3 5 3 W 1012,9 10 0
15.10.2018 06:00:00 - - - - - - - -
15.10.2018 05:00:00 - - - - - - - -
15.10.2018 04:00:00 - - - - - - - -
15.10.2018 03:00:00 - - - - - - - -
15.10.2018 02:00:00 - - - - - - - -
15.10.2018 01:00:00 - - - - - - - -
15.10.2018 00:00:00 - - - - - - - -
14.10.2018 23:00:00 - - - - - - - -
14.10.2018 22:00:00 - - - - - - - -
14.10.2018 21:00:00 - - - - - - - -
14.10.2018 20:00:00 18,8 17,7 21 11 ENE 1012,3 20 0
14.10.2018 19:00:00 19,0 17,7 26 14 NE 1012,2 20 48
14.10.2018 18:00:00 19,6 17,9 26 14 NE 1012,2 25 36
14.10.2018 17:00:00 19,6 17,9 26 14 NE 1012,2 20 54
14.10.2018 16:00:00 20,0 17,8 29 16 NE 1012,2 15 42
14.10.2018 15:00:00 19,4 17,7 28 15 NE 1013,0 15 18
14.10.2018 14:00:00 19,8 17,9 29 16 ENE 1013,1 15 12
14.10.2018 13:00:00 20,0 17,8 34 18 ENE 1014,0 20 12
14.10.2018 12:00:00 19,2 17,4 28 15 ENE 1014,5 15 0
14.10.2018 11:00:00 19,4 17,4 29 16 ENE 1014,6 15 0
14.10.2018 10:00:00 18,2 16,5 21 11 ESE 1014,8 10 0
14.10.2018 09:00:00 19,6 18,4 24 13 E 1014,2 10 0
14.10.2018 08:00:00 19,6 17,9 29 16 ENE 1014,2 10 0
14.10.2018 07:00:00 19,6 17,4 31 17 E 1014,8 10 0
14.10.2018 06:00:00 - - - - - - - -
14.10.2018 05:00:00 - - - - - - - -
14.10.2018 04:00:00 - - - - - - - -
14.10.2018 03:00:00 - - - - - - - -
14.10.2018 02:00:00 - - - - - - - -
14.10.2018 01:00:00 - - - - - - - -
14.10.2018 00:00:00 - - - - - - - -
13.10.2018 23:00:00 - - - - - - - -
13.10.2018 22:00:00 - - - - - - - -
13.10.2018 21:00:00 - - - - - - - -
13.10.2018 20:00:00 20,6 18,9 22 12 E 1017,1 11 0
13.10.2018 19:00:00 20,6 16,2 21 11 E 1017,0 12 0
13.10.2018 18:00:00 20,4 18,2 22 12 ESE 1017,0 15 0
13.10.2018 17:00:00 21,0 18,8 24 13 E 1016,9 12 12
13.10.2018 16:00:00 21,0 18,9 28 15 E 1017,1 11 0
13.10.2018 15:00:00 20,2 17,2 26 14 E 1017,5 15 30
13.10.2018 14:00:00 20,6 18,4 26 14 E 1017,9 15 36
13.10.2018 13:00:00 20,2 18,0 28 15 E 1018,2 10 6
13.10.2018 12:00:00 20,0 17,8 24 13 ESE 1018,6 10 0
13.10.2018 11:00:00 19,6 17,4 21 11 ESE 1018,6 15 0
13.10.2018 10:00:00 19,4 17,2 24 13 E 1018,4 15 0
13.10.2018 09:00:00 19,0 17,0 21 11 ESE 1017,8 15 0
13.10.2018 08:00:00 19,0 17,0 4 2 SE 1018,3 15 0
13.10.2018 07:00:00 19,0 17,0 5 3 ESE 1018,3 12 0
13.10.2018 06:00:00 - - - - - - - -
13.10.2018 05:00:00 - - - - - - - -
13.10.2018 04:00:00 - - - - - - - -
13.10.2018 03:00:00 - - - - - - - -
13.10.2018 02:00:00 - - - - - - - -
13.10.2018 01:00:00 - - - - - - - -
13.10.2018 00:00:00 - - - - - - - -
12.10.2018 23:00:00 - - - - - - - -
12.10.2018 22:00:00 - - - - - - - -
12.10.2018 21:00:00 - - - - - - - -
12.10.2018 20:00:00 22,0 20,7 9 5 N 1019,6 11 0
12.10.2018 19:00:00 23,0 21,6 0 0 N 1019,2 15 30

tt = temperature
td = dewpoint
ff = wind speed
dd = wind direction
ppp = reduced air pressure
vv = visibility
sd = sunshine duration

Next stations